Location: Unspecified
(46.0725°N, 13.7344°E)
Time: 14:30:06
(UTC+02:00)

Cosmos 1674 - Visible Passes

Search period start: 21 June 2018 00:00
Search period end: 01 July 2018 00:00
Orbit: 498 x 519 km, 82.5° (Epoch: 20 June)

Date Brightness Start Highest point End Pass type
(mag) Time Alt. Az. Time Alt. Az. Time Alt. Az.
21 Jun 4.1 21:32:37 10° SE 21:35:34 22° E 21:38:32 10° NE visible
21 Jun 4.6 23:07:39 10° SW 23:10:59 28° WNW 23:14:22 10° NNW visible
22 Jun 4.2 22:50:15 10° SW 22:53:46 35° WNW 22:57:21 10° N visible
23 Jun 3.7 22:32:53 10° SSW 22:36:34 45° WNW 22:40:17 10° N visible
24 Jun 3.3 22:15:37 10° SSW 22:19:22 59° W 22:23:12 10° N visible
25 Jun 2.9 21:58:23 10° SSW 22:02:12 77° W 22:06:04 10° N visible
26 Jun 2.7 21:41:13 10° S 21:45:02 82° E 21:48:54 10° N visible
27 Jun 5.8 23:02:38 10° W 23:03:54 11° WNW 23:05:11 10° NW visible
28 Jun 5.7 22:44:31 10° W 22:46:37 14° WNW 22:48:45 10° NW visible
29 Jun 5.6 22:26:43 10° WSW 22:29:21 17° WNW 22:32:00 10° NNW visible
30 Jun 5.4 22:09:05 10° WSW 22:12:05 22° WNW 22:15:08 10° NNW visible
